Location: Bogis-Bossey
(46.3500°N, 6.1667°E)
Time: 19:11:39
(UTC+00:00)

Cosmos 2278 Rocket - Pass Details

Date: 17 August 2022
Orbit: 841 x 845 km, 71.0° (Epoch: 01 October)

Event Time Altitude Azimuth Distance (km) Brightness Sun altitude
Exits shadow 21:54:39 62° 211° (SSW) 944 2.2 -26.0°
Maximum altitude 21:55:40 87° 296° (WNW) 849 2.1 -26.1°
Drops below altitude 10° 22:01:21 10° 26° (NNE) 2,469 5.0 -26.5°
Sets 22:03:48 0° 27° (NNE) 3,408 5.8 -26.7°
